Weather History for Frederick, MD

Change the Weather History Date:

Thursday, March 7, 2013

  Actual Average (KHGR) Record (KHGR)
Temperature  
Mean Temperature 39 °F -  
Max Temperature 48 °F 44 °F 76 °F (2009)
Min Temperature 30 °F 27 °F 18 °F (2003)
Degree Days  
Heating Degree Days 26    
Moisture  
Dew Point 29 °F    
Average Humidity 74    
Maximum Humidity 100    
Minimum Humidity 25    
Precipitation  
Precipitation 0.00 in - - ()
Sea Level Pressure  
Sea Level Pressure 30.11 in    
Wind  
Wind Speed 8 mph (NNW)    
Max Wind Speed 21 mph    
Max Gust Speed 29 mph    
Visibility 10 miles    
Events      
Averages and records for this station are not official NWS values.
T = Trace of Precipitation, MM = Missing Value Source: NWS Daily Summary

Daily Weather History Graph

Daily Weather History Graph

Search for Another Location

Airport:

Trip Planner

Search our weather history database for the weather conditions in past years. The results will help you decide how hot, cold, wet, or windy it might be!

Date:

Astronomy

Mar. 07, 2013 Rise Set
Actual Time 6:32 AM EST 6:08 PM EST
Civil Twilight 6:06 AM EST 6:35 PM EST
Nautical Twilight 5:35 AM EST 7:06 PM EST
Astronomical Twilight 5:03 AM EST 7:37 PM EST
Moon 3:30 AM EST (3/7) 1:55 PM EST (3/7)
Length of Visible Light 12h 29m
Length of Day
11h 35m
Waning Crescent, 20% of the Moon is Illuminated
Mar 7
Waning Crescent
Mar 11
New
Mar 19
First Quarter
Mar 27
Full
Apr 3
Last Quarter

Hourly Weather History & Observations

Time (EST) Temp. Windchill Dew Point Humidity Pressure Visibility Wind Dir Wind Speed Gust Speed Precip Events Conditions
12:05 AM 35.6 °F 29.2 °F 32.0 °F 87% 30.04 in 10.0 mi NNW 8.1 mph - N/A   Scattered Clouds
12:25 AM 35.6 °F 30.7 °F 32.0 °F 87% 30.04 in 10.0 mi NNW 5.8 mph - N/A   Clear
12:45 AM 35.6 °F 31.7 °F 32.0 °F 87% 30.05 in 10.0 mi North 4.6 mph - N/A   Clear
1:05 AM 35.6 °F 30.7 °F 32.0 °F 87% 30.05 in 10.0 mi North 5.8 mph - N/A   Clear
1:25 AM 33.8 °F 29.6 °F 30.2 °F 87% 30.06 in 10.0 mi North 4.6 mph - N/A   Clear
1:45 AM 33.8 °F 30.8 °F 30.2 °F 87% 30.06 in 10.0 mi North 3.5 mph - N/A   Clear
2:05 AM 32.0 °F - 30.2 °F 93% 30.06 in 10.0 mi Calm Calm - N/A   Clear
2:25 AM 30.2 °F - 30.2 °F 100% 30.05 in 10.0 mi Calm Calm - N/A   Clear
2:45 AM 30.2 °F - 30.2 °F 100% 30.06 in 10.0 mi Calm Calm - N/A   Scattered Clouds
3:05 AM 30.2 °F - 30.2 °F 100% 30.06 in 10.0 mi Calm Calm - N/A   Overcast
3:25 AM 32.0 °F - 32.0 °F 100% 30.06 in 10.0 mi Calm Calm - N/A   Overcast
3:45 AM 30.2 °F - 30.2 °F 100% 30.07 in 10.0 mi Calm Calm - N/A   Overcast
4:05 AM 33.8 °F 26.4 °F 32.0 °F 93% 30.07 in 10.0 mi North 9.2 mph - N/A   Overcast
4:25 AM 35.6 °F 27.1 °F 28.4 °F 75% 30.07 in 10.0 mi North 12.7 mph 17.3 mph N/A   Overcast
4:45 AM 35.6 °F 28.0 °F 28.4 °F 75% 30.07 in 10.0 mi North 10.4 mph 17.3 mph N/A   Scattered Clouds
5:05 AM 35.6 °F 29.9 °F 30.2 °F 81% 30.08 in 10.0 mi NNW 6.9 mph - N/A   Mostly Cloudy
5:25 AM 35.6 °F 29.9 °F 30.2 °F 81% 30.08 in 10.0 mi NNW 6.9 mph - N/A   Overcast
5:45 AM 35.6 °F 31.7 °F 28.4 °F 75% 30.09 in 10.0 mi North 4.6 mph - N/A   Overcast
6:54 AM 35.6 °F 28.6 °F 26.6 °F 70% 30.10 in 10.0 mi North 9.2 mph - N/A   Scattered Clouds
7:59 AM 37.4 °F 31.4 °F 28.4 °F 70% 30.12 in 10.0 mi NNW 8.1 mph - N/A   Scattered Clouds
8:48 AM 41.0 °F 34.3 °F 28.4 °F 61% 30.13 in 10.0 mi North 11.5 mph 18.4 mph N/A   Clear
9:59 AM 44.6 °F 37.2 °F 28.4 °F 53% 30.14 in 10.0 mi North 17.3 mph 23.0 mph N/A   Clear
10:52 AM 46.4 °F 39.2 °F 28.4 °F 50% 30.14 in 10.0 mi NNW 18.4 mph 25.3 mph N/A   Scattered Clouds
11:47 AM 46.4 °F 40.4 °F 28.4 °F 50% 30.14 in 10.0 mi North 13.8 mph 23.0 mph N/A   Mostly Cloudy
12:45 PM 46.4 °F 39.0 °F 26.6 °F 46% 30.13 in 10.0 mi North 19.6 mph 25.3 mph N/A   Mostly Cloudy
1:49 PM 46.4 °F 38.7 °F 26.6 °F 46% 30.11 in 10.0 mi NNW 20.7 mph 28.8 mph N/A   Mostly Cloudy
2:50 PM 48.2 °F - 28.4 °F 46% 30.12 in 10.0 mi North 18.4 mph 28.8 mph N/A   Mostly Cloudy
3:52 PM 46.4 °F 40.7 °F 12.2 °F 25% 30.12 in 10.0 mi North 12.7 mph 24.2 mph N/A   Mostly Cloudy
4:45 PM 46.4 °F 41.5 °F 28.4 °F 50% 30.12 in 10.0 mi NNW 10.4 mph 18.4 mph N/A   Mostly Cloudy
5:45 PM 44.6 °F 38.8 °F 28.4 °F 53% 30.15 in 10.0 mi NNW 11.5 mph 17.3 mph N/A   Mostly Cloudy
6:45 PM 42.8 °F 37.0 °F 30.2 °F 61% 30.17 in 10.0 mi NNW 10.4 mph 19.6 mph N/A   Mostly Cloudy
7:55 PM 37.4 °F 32.8 °F 30.2 °F 75% 30.18 in 10.0 mi NNW 5.8 mph - N/A   Clear
8:45 PM 35.6 °F 29.2 °F 32.0 °F 87% 30.18 in 10.0 mi NW 8.1 mph - N/A   Clear
9:05 PM 37.4 °F 31.4 °F 32.0 °F 81% 30.18 in 10.0 mi NW 8.1 mph - N/A   Clear
9:25 PM 39.2 °F 31.6 °F 32.0 °F 75% 30.18 in 10.0 mi NW 12.7 mph - N/A   Clear
9:45 PM 39.2 °F 31.2 °F 30.2 °F 70% 30.18 in 10.0 mi NW 13.8 mph 20.7 mph N/A   Clear
10:05 PM 37.4 °F 29.3 °F 30.2 °F 75% 30.18 in 10.0 mi NNW 12.7 mph - N/A   Clear
10:25 PM 37.4 °F 30.8 °F 30.2 °F 75% 30.18 in 10.0 mi NW 9.2 mph - N/A   Clear
10:45 PM 37.4 °F 30.3 °F 30.2 °F 75% 30.18 in 10.0 mi NW 10.4 mph - N/A   Clear
11:05 PM 37.4 °F 30.8 °F 30.2 °F 75% 30.18 in 10.0 mi NNW 9.2 mph - N/A   Clear
11:25 PM 35.6 °F 28.6 °F 30.2 °F 81% 30.18 in 10.0 mi NW 9.2 mph - N/A   Clear
11:45 PM 35.6 °F 28.0 °F 30.2 °F 81% 30.18 in 10.0 mi NNW 10.4 mph - N/A   Clear